Miscellaneous Local Product
Issued by NWS Hastings, NE

Home | Current Version | Previous Version | Text Only | Print | Product List | Glossary On
Versions: 1 2 3 4 5 6 7 8 9 10 11 12 13 14 15 16 17 18 19 20 21 22 23 24 25 26 27 28 29 30 31 32 33 34 35 36 37 38 39 40 41 42 43 44 45 46 47 48 49 50
000
AXUS43 KGID 290702
MISGRI

GID CWA HOURLY WEATHER ROUNDUP
NATIONAL WEATHER SERVICE HASTINGS NE
100 AM CST SAT NOV 29 2014

NOTE: "FAIR" INDICATES FEW OR NO CLOUDS BELOW 12,000 FEET WITH NO
SIGNIFICANT WEATHER AND/OR OBSTRUCTIONS TO VISIBILITY.

...SOUTH CENTRAL NEBRASKA...

CITY           SKY/WX    TMP DP  RH WIND       PRES   REMARKS
GRAND ISLAND   MOCLDY    46  20  35 W8        29.61F
HASTINGS       CLOUDY    44  20  38 SW7       29.61F
KEARNEY        MOCLDY    48  16  27 W5        29.64F
ORD            MOCLDY    51  20  29 W10       29.56F
YORK           MOCLDY    37 -54   1 SW8       29.60F WCI  31
AURORA         MOCLDY    39  23  53 SW8       29.60F WCI  33
LEXINGTON      MOCLDY    35  19  52 N8        29.63F WCI  28
HOLDREGE       MOCLDY    51  13  22 CALM      29.63F
HEBRON         CLOUDY    47  31  52 SW9       29.64F

...NEBRASKA PANHANDLE...

CITY           SKY/WX    TMP DP  RH WIND       PRES   REMARKS
CHADRON        CLEAR    N/A N/A N/A SW9       29.58F
ALLIANCE       MOCLDY    41  19  41 SW6       29.64F
SCOTTSBLUFF    CLOUDY    42  20  41 N6        29.64F
SIDNEY         CLOUDY    38  21  50 NW14      29.70F WCI  30

...WESTERN AND NORTH CENTRAL NEBRASKA...

CITY           SKY/WX    TMP DP  RH WIND       PRES   REMARKS
VALENTINE      CLEAR     42  21  43 SW7       29.53S
AINSWORTH      CLEAR     45  21  38 SW13      29.54S
ONEILL         PTCLDY    45  26  47 SW9       29.52F
BROKEN BOW     PTCLDY    43  22  43 SW10      29.61S
IMPERIAL       MOCLDY    41  21  44 NW8       29.67F
NORTH PLATTE   PTCLDY    27  21  78 W8        29.66F WCI  19
MCCOOK         CLOUDY    35  15  44 SW7       29.64F WCI  29

...EASTERN NEBRASKA...

CITY           SKY/WX    TMP DP  RH WIND       PRES   REMARKS
NORFOLK        CLEAR     30  26  85 SW3       29.53F
SO SIOUX CITY  PTCLDY    30  26  85 E7        29.54F WCI  23
TEKAMAH        CLEAR     30  24  78 SE9       29.55F WCI  22
COLUMBUS       PTCLDY    27  19  74 CALM      29.58F
ALBION         PTCLDY    46  21  37 CALM      29.56F
OMAHA EPPLEY   MOCLDY    36  30  79 SE9       29.59F WCI  29
OFFUTT AFB     PTCLDY    31  28  88 CALM      29.58F
MILLARD        PTCLDY    32  29  88 CALM      29.59F
LINCOLN        MOCLDY    43  32  65 S6        29.61F
NEBRASKA CITY  MOCLDY    47  32  55 SW13      29.61F
BEATRICE       MOCLDY    46  34  64 S8        29.64F
FALLS CITY     MOCLDY    50  37  61 SW8       29.64F

...NORTHERN KANSAS...

CITY           SKY/WX    TMP DP  RH WIND       PRES   REMARKS
GOODLAND       MOCLDY    42  17  36 W13       29.68F
HILL CITY      MOCLDY    34  19  54 CALM      29.65F
NORTON         SUNNY     36  14  41 SW7       29.63F WCI  30
PHILLIPSBURG   CLEAR     43  23  45 CALM      29.64F
SMITH CENTER   CLEAR     46  25  42 S3        29.65F
BELOIT         CLEAR     45  32  61 SE8       29.65F
HAYS           CLOUDY    37  21  52 SE5       29.66F WCI  34
RUSSELL        CLOUDY    41  31  67 S12       29.65F
CONCORDIA      CLOUDY    49  35  58 SW3       29.66F
SALINA         PTCLDY    49  38  65 S13       29.68F
TOPEKA         CLOUDY    52  39  61 SW9       29.70F



USA.gov is the U.S. government's official web portal to all federal, state and local government web resources and services.